This is the latest recevied weather packets stored in our database for station/object NR6G-12. If no packets are shown the sender has not sent any weather packets the latest 10 day(s).
| Time | Temp. | Humidity | Pressure | Rain* | Wind** | Luminosity | Snow |
|---|---|---|---|---|---|---|---|
| 1788280093 | 17.78° C | 46% | 1017 hPa | 0 mm | - | - | - |
| 1788279751 | 18.33° C | 47% | 1016.9 hPa | 0 mm | - | - | - |
| 1788279373 | 18.33° C | 47% | 1016.8 hPa | 0 mm | - | - | - |
| 1788279013 | 17.78° C | 47% | 1016.9 hPa | 0 mm | - | - | - |
| 1788278653 | 17.78° C | 47% | 1016.9 hPa | 0 mm | - | - | - |
| 1788278293 | 17.78° C | 47% | 1016.7 hPa | 0 mm | - | - | - |
| 1788277933 | 17.78° C | 45% | 1016.8 hPa | 0 mm | - | - | - |
| 1788277573 | 17.78° C | 46% | 1016.8 hPa | 0 mm | - | - | - |
| 1788277213 | 17.78° C | 46% | 1016.7 hPa | 0 mm | - | - | - |
| 1788276853 | 17.22° C | 48% | 1016.7 hPa | 0 mm | - | - | - |
| 1788276493 | 17.22° C | 49% | 1016.7 hPa | 0 mm | - | - | - |
| 1788276133 | 16.67° C | 47% | 1016.7 hPa | 0 mm | - | - | - |
| 1788275773 | 16.67° C | 47% | 1016.6 hPa | 0 mm | - | - | - |
| 1788275413 | 16.67° C | 47% | 1016.6 hPa | 0 mm | - | - | - |
| 1788274693 | 16.11° C | 48% | 1016.6 hPa | 0 mm | - | - | - |
| 1788274333 | 15.56° C | 47% | 1016.7 hPa | 0 mm | - | - | - |
| 1788273973 | 15.56° C | 47% | 1016.6 hPa | 0 mm | - | - | - |
| 1788273613 | 15.56° C | 50% | 1016.7 hPa | 0 mm | - | - | - |
| 1788273253 | 15.56° C | 49% | 1016.6 hPa | 0 mm | - | - | - |
| 1788272893 | 15.56° C | 48% | 1016.7 hPa | 0 mm | - | - | - |
| 1788272533 | 15.56° C | 49% | 1016.7 hPa | 0 mm | - | - | - |
| 1788272173 | 15° C | 48% | 1016.7 hPa | 0 mm | - | - | - |
| 1788271813 | 15° C | 46% | 1016.6 hPa | 0 mm | - | - | - |
| 1788271453 | 15° C | 46% | 1016.5 hPa | 0 mm | - | - | - |
| 1788271093 | 15° C | 45% | 1016.5 hPa | 0 mm | - | - | - |
* Rain latest hour (hover to see other rain measurements)
** Current wind speed in m/s (hover to see current wind gust speed)